Hourly Weather Gogolice

Today, 17 May, Monday

Time Temperature Precipitation Wind Pressure Humidity
00:00 +8°C° 0.2 mm 2 mps 743 mmHg 91%
01:00 +8°C° 0 mm 2 mps 743 mmHg 93%
02:00 +7°C° 0 mm 2 mps 743 mmHg 93%
03:00 +7°C° 0 mm 2 mps 743 mmHg 94%
04:00 +7°C° 0 mm 2 mps 743 mmHg 94%
05:00 +8°C° 0 mm 2 mps 743 mmHg 92%
06:00 +10°C° 0 mm 2 mps 744 mmHg 90%
07:00 +11°C° 0 mm 3 mps 744 mmHg 88%
08:00 +12°C° 0.2 mm 3 mps 744 mmHg 82%
09:00 +14°C° 0.2 mm 3 mps 744 mmHg 76%
10:00 +16°C° 0.2 mm 3 mps 744 mmHg 70%
11:00 +17°C° 0.5 mm 4 mps 744 mmHg 67%
12:00 +17°C° 0.5 mm 4 mps 744 mmHg 64%
13:00 +18°C° 0.5 mm 4 mps 744 mmHg 61%
14:00 +17°C° 0.3 mm 4 mps 744 mmHg 63%
15:00 +17°C° 0.3 mm 3 mps 745 mmHg 65%
16:00 +17°C° 0.3 mm 3 mps 745 mmHg 66%
17:00 +16°C° 0.2 mm 3 mps 745 mmHg 71%
18:00 +15°C° 0.2 mm 2 mps 745 mmHg 75%
19:00 +14°C° 0.2 mm 2 mps 745 mmHg 80%
20:00 +13°C° 0.1 mm 2 mps 745 mmHg 84%
21:00 +12°C° 0.1 mm 2 mps 746 mmHg 87%
22:00 +10°C° 0.1 mm 2 mps 746 mmHg 91%
23:00 +10°C° 0 mm 2 mps 746 mmHg 92%

Tomorrow, 18 May, Tuesday

Time Temperature Precipitation Wind Pressure Humidity
00:00 +9°C° 0 mm 2 mps 746 mmHg 93%
01:00 +9°C° 0 mm 2 mps 747 mmHg 95%
02:00 +8°C° 0 mm 2 mps 747 mmHg 95%
03:00 +8°C° 0 mm 2 mps 747 mmHg 96%
04:00 +7°C° 0 mm 2 mps 747 mmHg 97%
05:00 +8°C° 0 mm 3 mps 747 mmHg 94%
06:00 +9°C° 0 mm 3 mps 748 mmHg 91%
07:00 +10°C° 0 mm 3 mps 748 mmHg 88%
08:00 +11°C° 0.2 mm 4 mps 748 mmHg 85%
09:00 +12°C° 0.2 mm 4 mps 748 mmHg 83%
10:00 +13°C° 0.2 mm 5 mps 748 mmHg 80%
11:00 +13°C° 0.4 mm 5 mps 749 mmHg 77%
12:00 +14°C° 0.4 mm 5 mps 749 mmHg 74%
13:00 +15°C° 0.4 mm 5 mps 749 mmHg 71%
14:00 +14°C° 0.5 mm 5 mps 749 mmHg 73%
15:00 +14°C° 0.5 mm 4 mps 749 mmHg 75%
16:00 +14°C° 0.5 mm 4 mps 749 mmHg 77%
17:00 +13°C° 0.3 mm 3 mps 749 mmHg 80%
18:00 +12°C° 0.3 mm 3 mps 749 mmHg 83%
19:00 +13°C° 0.3 mm 2 mps 750 mmHg 86%
20:00 +12°C° 0 mm 2 mps 750 mmHg 88%
21:00 +9°C° 0 mm 2 mps 750 mmHg 90%
22:00 +9°C° 0 mm 1 mps 750 mmHg 92%
23:00 +8°C° 0 mm 2 mps 750 mmHg 93%

Day after tomorrow, 19 May, Wednesday

Time Temperature Precipitation Wind Pressure Humidity
00:00 +7°C° 0 mm 2 mps 750 mmHg 94%
01:00 +7°C° 0 mm 2 mps 751 mmHg 94%
02:00 +7°C° 0.3 mm 2 mps 751 mmHg 95%
03:00 +7°C° 0.3 mm 2 mps 751 mmHg 96%
04:00 +7°C° 0.3 mm 2 mps 751 mmHg 97%
05:00 +8°C° 0.3 mm 2 mps 751 mmHg 96%
06:00 +8°C° 0.3 mm 2 mps 752 mmHg 95%
07:00 +9°C° 0.3 mm 2 mps 752 mmHg 94%
08:00 +9°C° 0.3 mm 3 mps 752 mmHg 94%
09:00 +9°C° 0.3 mm 3 mps 752 mmHg 94%
10:00 +8°C° 0.3 mm 4 mps 753 mmHg 94%
11:00 +8°C° 0.5 mm 4 mps 753 mmHg 93%
12:00 +8°C° 0.5 mm 4 mps 753 mmHg 92%
13:00 +8°C° 0.5 mm 4 mps 753 mmHg 91%
14:00 +10°C° 0.6 mm 3 mps 753 mmHg 89%
15:00 +10°C° 0.6 mm 2 mps 753 mmHg 86%
16:00 +10°C° 0.6 mm 2 mps 753 mmHg 84%
17:00 +11°C° 0 mm 1 mps 753 mmHg 84%
18:00 +11°C° 0 mm 1 mps 753 mmHg 84%
19:00 +11°C° 0 mm 1 mps 753 mmHg 84%
20:00 +10°C° 0 mm 1 mps 754 mmHg 86%
21:00 +9°C° 0 mm 1 mps 754 mmHg 88%
22:00 +7°C° 0 mm 2 mps 754 mmHg 90%
23:00 +7°C° 0 mm 2 mps 754 mmHg 91%

20 May, Thursday

Time Temperature Precipitation Wind Pressure Humidity
00:00 +6°C° 0 mm 2 mps 754 mmHg 91%
01:00 +6°C° 0 mm 2 mps 754 mmHg 92%
02:00 +6°C° 0 mm 2 mps 754 mmHg 93%
03:00 +6°C° 0 mm 2 mps 754 mmHg 93%
04:00 +5°C° 0 mm 2 mps 755 mmHg 94%
05:00 +7°C° 0 mm 2 mps 755 mmHg 92%
06:00 +8°C° 0 mm 2 mps 755 mmHg 90%
07:00 +9°C° 0 mm 3 mps 756 mmHg 89%
08:00 +10°C° 0.1 mm 3 mps 756 mmHg 80%
09:00 +12°C° 0.1 mm 4 mps 756 mmHg 72%
10:00 +13°C° 0.1 mm 5 mps 756 mmHg 64%
11:00 +13°C° 0.2 mm 5 mps 756 mmHg 63%
12:00 +13°C° 0.2 mm 6 mps 756 mmHg 63%
13:00 +14°C° 0.2 mm 6 mps 756 mmHg 63%
14:00 +13°C° 0.1 mm 6 mps 756 mmHg 62%
15:00 +13°C° 0.1 mm 6 mps 757 mmHg 62%
16:00 +13°C° 0.1 mm 6 mps 757 mmHg 61%
17:00 +12°C° 0.1 mm 5 mps 757 mmHg 67%
18:00 +11°C° 0.1 mm 4 mps 757 mmHg 73%
19:00 +10°C° 0.1 mm 4 mps 757 mmHg 78%
20:00 +8°C° 0 mm 3 mps 757 mmHg 83%
21:00 +7°C° 0 mm 3 mps 757 mmHg 87%
22:00 +5°C° 0 mm 3 mps 757 mmHg 91%
23:00 +4°C° 0 mm 3 mps 757 mmHg 92%

21 May, Friday

Time Temperature Precipitation Wind Pressure Humidity
00:00 +4°C° 0 mm 3 mps 757 mmHg 92%
01:00 +3°C° 0 mm 3 mps 757 mmHg 93%
02:00 +3°C° 0 mm 3 mps 757 mmHg 94%
03:00 +2°C° 0 mm 3 mps 757 mmHg 94%
04:00 +2°C° 0 mm 3 mps 757 mmHg 95%
05:00 +3°C° 0 mm 4 mps 757 mmHg 89%
06:00 +5°C° 0 mm 4 mps 756 mmHg 83%
07:00 +7°C° 0 mm 4 mps 756 mmHg 77%
08:00 +8°C° 0 mm 4 mps 756 mmHg 71%
09:00 +11°C° 0 mm 4 mps 756 mmHg 66%
10:00 +13°C° 0 mm 4 mps 755 mmHg 60%
11:00 +13°C° 0 mm 4 mps 755 mmHg 58%
12:00 +14°C° 0 mm 4 mps 754 mmHg 56%
13:00 +15°C° 0 mm 4 mps 754 mmHg 53%
14:00 +16°C° 0 mm 3 mps 753 mmHg 55%
15:00 +16°C° 0 mm 2 mps 753 mmHg 57%
16:00 +16°C° 0 mm 2 mps 753 mmHg 59%
17:00 +15°C° 0 mm 2 mps 752 mmHg 62%
18:00 +14°C° 0 mm 1 mps 752 mmHg 66%
19:00 +14°C° 0 mm 1 mps 751 mmHg 70%
20:00 +13°C° 0 mm 1 mps 751 mmHg 70%
21:00 +12°C° 0 mm 2 mps 751 mmHg 71%
22:00 +12°C° 0 mm 2 mps 751 mmHg 71%
23:00 +10°C° 0 mm 2 mps 750 mmHg 74%

22 May, Saturday

Time Temperature Precipitation Wind Pressure Humidity
00:00 +10°C° 0 mm 3 mps 750 mmHg 77%
01:00 +10°C° 0 mm 3 mps 749 mmHg 80%
02:00 +10°C° 0 mm 3 mps 749 mmHg 82%
03:00 +10°C° 0 mm 4 mps 748 mmHg 83%
04:00 +10°C° 0 mm 4 mps 747 mmHg 85%
05:00 +11°C° 0.1 mm 4 mps 747 mmHg 84%
06:00 +11°C° 0.1 mm 4 mps 747 mmHg 83%
07:00 +12°C° 0.1 mm 4 mps 747 mmHg 82%
08:00 +12°C° 0.4 mm 4 mps 747 mmHg 84%
09:00 +12°C° 0.4 mm 4 mps 747 mmHg 85%
10:00 +13°C° 0.4 mm 4 mps 748 mmHg 86%
11:00 +13°C° 0.8 mm 5 mps 748 mmHg 83%
12:00 +14°C° 0.8 mm 5 mps 748 mmHg 79%
13:00 +15°C° 0.8 mm 5 mps 748 mmHg 76%
14:00 +15°C° 0.4 mm 5 mps 748 mmHg 71%
15:00 +15°C° 0.4 mm 4 mps 748 mmHg 67%
16:00 +16°C° 0.4 mm 3 mps 749 mmHg 62%
17:00 +14°C° 0.2 mm 3 mps 749 mmHg 68%
18:00 +13°C° 0.2 mm 3 mps 749 mmHg 75%
19:00 +11°C° 0.2 mm 3 mps 749 mmHg 81%
20:00 +10°C° 0 mm 2 mps 749 mmHg 83%
21:00 +9°C° 0 mm 2 mps 750 mmHg 84%
22:00 +8°C° 0 mm 2 mps 750 mmHg 86%
23:00 +7°C° 0 mm 2 mps 750 mmHg 87%
Show more